Date,TemperatureHighF,TemperatureAvgF,TemperatureLowF,DewpointHighF,DewpointAvgF,DewpointLowF,HumidityHigh,HumidityAvg,HumidityLow,PressureMaxIn,PressureMinIn,WindSpeedMaxMPH,WindSpeedAvgMPH,GustSpeedMaxMPH,PrecipitationSumIn
2013-1-1,51.6,46.2,37.9,51.3,45.6,37.7,99,98,81,30.03,29.89,11,2,16,1.03
2013-1-2,37.9,34.2,32.4,37.7,32.4,30.4,99,93,87,30.14,29.99,7,3,11,0.00
2013-1-3,45.7,34.6,28.0,31.4,27.3,21.5,93,76,45,30.30,30.10,7,2,11,0.00
2013-1-4,48.4,35.5,27.0,27.4,22.4,18.1,77,61,37,30.37,30.27,6,1,10,0.00
2013-1-5,48.4,37.6,25.5,38.2,27.6,19.6,99,70,42,30.32,30.18,5,1,9,0.05
2013-1-6,50.4,40.7,33.4,42.3,36.2,28.2,99,85,64,30.25,30.11,7,2,10,0.01
2013-1-7,54.5,38.2,26.6,32.6,27.6,21.6,85,68,38,30.30,30.17,8,2,11,0.00
2013-1-8,61.0,48.3,33.6,44.4,37.4,26.0,78,67,49,30.24,30.14,10,2,14,0.00
2013-1-9,58.6,54.6,50.2,56.9,53.0,44.0,99,94,78,30.29,30.17,4,1,8,0.51
2013-1-10,65.8,61.5,57.4,61.3,58.9,55.7,98,91,85,30.26,29.96,14,4,21,0.01
2013-1-11,70.2,65.0,62.1,65.2,62.6,60.5,99,92,80,30.04,29.95,13,6,21,0.12
2013-1-12,70.5,67.3,65.3,66.7,64.1,58.6,99,90,77,30.02,29.86,12,4,17,0.11
2013-1-13,69.4,59.9,39.4,65.5,57.0,37.3,99,91,77,30.09,29.82,11,5,19,1.05
2013-1-14,67.3,36.6,33.6,37.4,34.4,31.4,94,91,88,30.15,29.99,11,5,15,1.10
2013-1-15,38.3,35.4,33.4,38.0,33.9,31.9,99,94,93,30.09,29.86,11,3,17,2.07
2013-1-16,37.6,36.5,35.6,36.8,34.9,33.5,97,94,92,30.01,29.88,8,2,11,0.35
2013-1-17,41.4,36.8,32.7,36.8,31.7,25.4,97,82,66,30.31,29.84,13,5,23,0.20
2013-1-18,54.0,37.9,28.4,35.4,27.7,21.0,88,70,32,30.47,30.30,6,1,10,0.00
2013-1-19,56.7,44.4,30.2,34.0,28.3,24.2,81,56,34,30.32,30.12,10,2,15,0.00
2013-1-20,61.3,43.7,31.8,38.9,31.6,26.2,89,66,36,31.58,30.05,6,1,10,0.00
2013-1-21,48.0,37.7,28.4,29.3,17.1,9.0,66,46,25,30.18,30.03,10,2,14,0.00
2013-1-22,41.0,31.3,21.9,14.9,9.6,3.7,56,42,27,30.31,30.16,8,2,12,0.00
2013-1-23,57.0,43.7,31.1,37.1,25.3,14.0,67,50,37,30.29,30.09,9,2,13,0.00
2013-1-24,46.8,39.4,33.1,36.7,19.7,6.7,77,48,27,30.32,30.11,10,3,16,0.00
2013-1-25,48.2,42.7,37.2,46.5,32.2,11.9,97,72,35,30.17,30.01,11,3,16,0.17
2013-1-26,53.4,40.8,32.0,36.6,31.6,29.0,96,72,43,30.24,30.12,6,2,9,0.00
2013-1-27,51.4,45.6,36.9,40.0,34.8,27.2,76,67,57,30.28,30.17,8,2,13,0.00
2013-1-28,64.8,55.0,47.5,52.2,45.5,34.2,88,71,58,30.23,30.09,11,4,19,0.00
2013-1-29,69.6,61.3,52.7,63.1,58.0,50.1,96,89,79,30.10,29.66,17,4,26,0.00
2013-1-30,71.1,53.9,36.7,64.0,48.3,21.6,95,82,54,29.87,29.49,19,6,30,1.04
2013-1-31,49.8,39.7,30.4,28.8,23.8,20.3,73,55,35,30.09,29.87,9,4,19,0.00
2013-2-1,42.4,30.6,22.8,31.6,11.1,2.0,69,46,26,30.35,30.08,10,2,17,0.00
2013-2-2,42.3,33.4,24.3,37.9,24.3,10.3,91,70,51,30.26,30.02,9,2,13,0.02
2013-2-3,55.2,38.4,29.3,38.9,29.5,21.7,98,75,31,30.08,29.98,9,2,15,0.01
2013-2-4,52.7,41.9,30.0,33.4,27.3,21.8,81,59,33,30.04,29.85,8,2,12,0.00
2013-2-5,65.3,51.0,41.7,45.9,40.6,32.9,93,70,41,29.99,29.85,8,1,12,0.04
2013-2-6,67.1,50.4,34.0,44.9,35.6,30.2,96,63,31,30.12,29.98,7,1,10,0.01
2013-2-7,60.3,52.2,48.0,47.7,43.1,33.6,89,72,54,30.02,29.86,10,2,14,0.01
2013-2-8,49.6,44.1,33.4,47.3,38.8,26.7,97,82,65,30.20,29.82,11,4,18,0.27
2013-2-9,61.7,45.3,31.3,32.4,28.0,20.5,81,56,24,30.24,30.06,9,2,13,0.00
2013-2-10,59.0,52.6,48.9,56.8,43.3,31.4,95,73,45,30.09,29.81,14,5,21,0.52
2013-2-11,59.4,52.9,43.9,58.5,45.0,33.0,98,76,50,30.11,29.88,6,1,11,0.01
2013-2-12,53.1,46.0,40.8,39.3,33.9,28.2,85,65,42,30.09,29.69,7,1,11,0.18
2013-2-13,45.9,42.8,39.2,44.0,39.2,33.9,98,87,77,29.95,29.62,10,2,15,0.08
2013-2-14,60.6,44.8,29.5,39.5,33.1,26.9,96,68,31,30.01,29.93,11,2,13,0.00
2013-2-15,57.7,43.7,33.1,41.4,32.6,22.6,94,67,44,30.04,29.96,9,2,16,0.00
2013-2-16,41.2,33.4,26.6,22.2,13.1,5.6,65,45,30,30.13,30.01,11,3,15,0.00
2013-2-17,49.1,34.5,17.6,19.0,11.6,6.0,68,43,24,30.22,30.11,10,1,14,0.00
2013-2-18,61.5,49.2,35.8,42.0,26.3,14.3,87,44,33,30.16,29.82,17,7,26,0.32
2013-2-19,53.8,45.0,29.3,45.7,23.3,8.6,96,48,23,30.16,29.88,11,4,17,0.18
2013-2-20,38.3,32.9,27.1,20.0,15.4,12.7,68,50,40,30.20,30.08,8,3,12,0.00
2013-2-21,56.8,43.3,30.2,46.7,25.6,11.7,92,56,21,30.11,29.76,11,4,16,0.69
2013-2-22,52.3,49.1,46.0,47.4,46.1,44.0,95,89,82,30.00,29.83,8,3,13,0.06
2013-2-23,54.7,46.5,39.4,45.2,42.4,32.0,96,87,65,30.08,29.81,5,1,8,0.01
2013-2-24,59.7,45.8,33.8,33.1,27.9,23.1,77,54,28,30.01,29.86,8,2,12,0.00
2013-2-25,61.2,49.9,41.2,44.7,33.0,21.9,89,55,31,29.87,29.43,19,5,27,0.09
2013-2-26,50.7,44.7,39.0,44.4,38.9,32.9,93,80,62,29.70,29.36,17,7,27,0.30
2013-2-27,54.5,44.4,39.6,35.6,32.5,30.2,74,64,49,29.85,29.70,9,4,15,0.00
2013-2-28,40.8,37.8,34.9,33.1,25.6,21.7,74,62,55,29.96,29.79,8,3,12,0.00
2013-3-1,41.7,35.9,32.5,29.6,27.0,24.2,86,71,56,29.96,29.90,5,2,10,0.00
2013-3-2,36.3,32.4,29.5,29.1,26.9,23.0,87,80,67,30.06,29.90,7,3,12,0.07
2013-3-3,44.1,33.5,25.9,23.2,16.8,7.9,76,54,26,30.08,30.00,8,2,14,0.00
2013-3-4,59.2,45.5,29.1,37.6,23.9,18.9,68,46,27,30.06,29.82,11,3,14,0.00
2013-3-5,57.2,48.5,34.5,55.3,42.1,15.6,95,79,48,29.96,29.63,17,5,23,0.81
2013-3-6,44.4,36.4,30.2,27.7,22.7,15.1,74,58,47,30.19,29.96,11,4,17,0.00
2013-3-7,50.4,37.3,27.3,31.7,26.3,19.8,80,66,47,30.26,30.17,8,3,12,0.00
2013-3-8,62.8,45.2,28.2,31.0,23.8,17.0,84,51,21,30.28,30.14,7,2,11,0.00
2013-3-9,69.4,53.8,40.5,36.5,29.8,21.6,64,43,27,30.16,30.00,9,3,14,0.00
2013-3-10,73.8,63.1,51.6,49.5,39.2,32.9,55,44,33,30.03,29.78,18,7,27,0.00
2013-3-11,66.0,50.0,39.4,54.3,45.0,32.1,99,85,54,29.91,29.73,17,4,29,1.49
2013-3-12,58.3,43.8,30.4,35.0,30.5,26.9,91,63,36,30.09,29.90,8,2,14,0.00
2013-3-13,51.4,41.7,32.7,30.5,23.4,15.2,78,52,28,30.28,30.06,10,3,16,0.00
2013-3-14,55.9,41.0,26.4,28.5,19.1,12.3,70,47,22,30.34,30.14,9,2,12,0.00
2013-3-15,77.4,57.7,36.9,45.5,36.9,23.8,66,49,33,30.15,29.88,15,3,20,0.00
2013-3-16,77.2,64.7,54.1,49.1,45.4,40.1,81,53,34,29.90,29.80,13,4,20,0.00
2013-3-17,73.8,62.3,53.4,56.6,50.4,46.0,89,67,41,29.91,29.78,13,3,17,0.00
2013-3-18,63.1,62.1,60.6,61.5,58.5,55.2,98,88,78,29.78,29.71,14,7,21,0.09
2013-3-23,52.3,51.1,49.8,51.6,50.6,49.6,99,98,94,29.79,29.59,10,3,17,2.00
2013-3-24,61.2,51.3,38.1,55.0,46.1,27.6,98,83,63,29.72,29.41,15,6,24,0.53
2013-3-25,38.5,35.2,33.4,27.8,23.6,20.9,75,63,53,30.04,29.72,12,5,18,0.00
2013-3-26,40.5,35.8,31.6,31.2,26.9,23.8,80,70,60,30.24,30.02,8,3,14,0.00
2013-3-27,54.9,40.9,26.8,32.5,26.9,21.9,86,62,32,30.31,30.19,7,2,12,0.00
2013-3-28,63.9,48.2,33.8,36.1,29.6,24.2,79,54,27,30.27,30.17,6,1,11,5.79
2013-3-29,69.3,53.3,38.5,41.8,36.1,29.8,86,57,27,30.21,30.07,11,2,14,56.79
2013-3-30,68.7,56.2,46.4,55.5,48.8,40.3,97,79,49,30.10,29.89,7,2,12,0.65
2013-3-31,64.6,57.0,52.3,61.3,56.3,51.8,99,98,87,29.89,29.80,6,2,9,0.41
2013-4-1,70.7,56.8,47.1,57.1,48.3,37.8,99,77,50,30.04,29.84,6,2,10,0.01
2013-4-2,54.1,47.5,40.1,40.7,29.2,21.8,72,52,33,30.17,30.03,8,3,14,0.00
2013-4-3,52.0,49.0,47.1,43.7,41.6,38.4,86,77,61,30.06,30.03,3,0,4,0.04
2013-4-4,47.8,44.7,43.7,44.9,43.4,39.3,98,95,74,30.06,29.88,9,2,14,0.46
2013-4-5,67.6,53.1,44.2,50.1,41.1,32.5,99,71,32,30.04,29.91,9,2,14,0.01
2013-4-6,75.2,58.9,39.4,46.4,37.7,29.4,95,54,24,30.09,29.95,10,2,16,0.00
2013-4-7,74.8,63.0,49.8,53.2,46.6,39.5,78,58,38,30.07,29.93,14,3,19,0.00
2013-4-8,80.1,68.5,56.1,59.9,55.4,48.5,88,66,46,30.02,29.90,14,4,23,0.00
2013-4-9,83.3,71.9,60.4,64.1,58.7,55.7,86,66,45,30.09,29.91,12,4,18,0.00
2013-4-10,87.4,75.2,60.6,61.0,57.8,53.3,87,58,36,30.01,29.77,11,4,17,0.00
2013-4-11,76.3,68.6,53.4,64.5,61.2,52.8,99,79,59,29.92,29.66,17,6,21,0.86
2013-4-12,66.6,54.2,42.4,52.5,43.0,36.0,99,72,37,29.92,29.92,9,2,14,0.01
2013-4-13,73.2,57.6,43.0,46.5,43.0,37.2,95,64,31,29.92,29.92,6,1,10,0.00
2013-4-14,64.6,57.8,50.5,55.8,48.4,38.1,90,73,42,29.92,29.92,13,3,18,0.00
2013-4-15,80.8,66.9,51.8,62.1,58.5,51.3,99,77,50,29.92,29.92,61,3,61,0.00
2013-4-16,83.1,72.4,64.4,69.0,65.5,60.7,92,80,62,29.92,29.92,10,4,14,0.00
2013-4-17,87.3,77.0,68.0,69.6,66.1,62.2,93,72,47,29.92,29.92,11,3,17,0.00
2013-4-18,82.6,74.2,66.0,66.0,62.4,56.5,92,69,45,29.92,29.92,19,7,31,0.00
2013-4-19,74.5,50.2,37.9,67.6,43.5,33.3,99,80,51,29.92,29.92,15,4,24,1.45
2013-4-20,64.6,49.9,33.4,45.5,33.3,25.0,99,61,27,29.92,29.92,10,2,14,0.00
2013-4-21,72.3,57.3,44.4,43.0,36.7,31.6,70,51,26,29.92,29.92,9,2,15,0.00
2013-4-22,74.3,62.2,52.2,49.8,44.8,39.8,77,56,33,29.92,29.92,10,3,15,0.00
2013-4-23,76.1,64.5,52.5,55.9,49.9,41.1,89,62,44,29.92,29.92,11,3,17,0.00
2013-4-24,66.2,57.3,46.6,60.3,52.8,40.4,99,86,68,29.92,29.92,14,4,22,0.33
2013-4-25,67.8,53.1,41.7,40.9,37.2,28.0,87,61,28,29.92,29.92,7,2,11,0.01
2013-4-26,75.2,58.9,45.1,52.0,40.5,28.8,92,57,24,29.92,29.92,8,2,14,0.05
2013-4-27,70.0,62.2,53.6,65.2,58.3,51.6,97,87,74,29.93,29.92,11,3,14,0.17
2013-4-28,66.7,61.9,58.3,66.2,61.1,58.0,99,97,88,29.92,29.92,58,3,115,0.60
2013-4-29,75.6,63.3,54.5,60.9,56.7,52.5,99,82,49,29.92,29.92,5,1,8,0.00
2013-4-30,81.9,66.7,49.8,62.1,53.9,48.9,99,69,39,29.92,29.92,8,1,11,0.00
2013-5-1,77.4,69.8,64.9,62.0,59.1,54.0,88,70,53,29.92,29.92,11,4,17,0.00
2013-5-2,71.8,66.1,60.8,60.8,57.5,53.4,82,74,68,29.92,29.92,11,4,17,0.00
2013-5-3,73.8,64.4,46.0,58.4,56.1,45.1,99,76,54,30.06,29.92,16,6,25,0.48
2013-5-4,52.0,45.6,41.0,47.5,44.0,40.7,99,95,80,29.92,29.92,6,2,9,1.65
2013-5-5,50.7,46.9,41.9,50.4,46.4,41.6,99,98,97,29.92,29.92,7,1,11,0.71
2013-5-6,59.2,51.7,48.6,56.4,51.0,48.3,99,97,84,29.92,29.92,7,1,11,1.55
2013-5-7,72.5,56.5,42.3,56.6,50.9,42.0,99,84,52,29.92,29.92,10,1,12,0.00
2013-5-8,78.8,64.8,50.7,63.7,57.2,50.4,99,80,51,29.92,29.92,6,1,10,0.00
2013-5-9,83.5,69.9,54.7,64.8,58.8,53.8,99,73,45,29.92,29.92,8,2,14,0.00
2013-5-10,73.6,66.0,60.8,65.4,61.8,59.4,98,87,72,29.92,29.92,11,3,15,0.46
2013-5-11,75.9,66.0,53.8,66.9,60.8,51.4,99,85,61,29.92,29.92,8,2,13,0.01
2013-5-12,67.5,58.3,50.2,55.4,38.9,29.2,98,54,28,29.92,29.92,9,3,15,0.00
2013-5-13,72.3,57.8,39.4,49.1,40.7,27.5,93,58,33,29.92,29.92,9,1,12,0.00
2013-5-14,85.3,68.5,49.5,58.8,53.5,47.4,94,64,37,29.92,29.92,11,3,17,0.00
2013-5-15,82.2,67.4,56.7,61.1,56.9,53.0,94,72,40,29.92,29.92,6,1,10,0.00
2013-5-16,84.0,72.2,60.8,65.2,58.6,46.1,90,66,33,29.92,29.92,10,2,14,0.00
2013-5-17,73.0,67.7,64.9,69.2,65.4,58.4,99,93,75,29.92,29.92,8,2,13,0.60
2013-5-18,73.0,68.0,66.0,71.5,67.4,65.7,99,98,93,29.92,29.92,4,1,8,0.00
2013-5-19,84.6,75.1,65.3,74.9,70.1,62.1,99,85,65,29.92,29.92,10,3,16,0.01
2013-5-20,86.9,74.1,64.6,71.7,67.4,62.0,95,81,54,29.92,29.92,8,3,11,0.00
2013-5-21,89.8,78.6,66.0,74.2,68.0,63.2,99,73,46,29.92,29.92,9,2,14,0.00
2013-5-22,83.1,73.2,64.4,68.3,65.7,63.1,99,79,55,29.92,29.92,12,3,18,0.13
2013-5-23,82.8,71.3,59.9,69.6,60.7,55.7,99,74,43,29.92,29.92,10,2,16,0.01
2013-5-24,74.3,63.3,56.1,57.8,51.9,44.5,95,70,39,29.92,29.92,10,3,16,0.00
2013-5-25,81.0,65.3,50.4,52.6,46.8,31.0,93,59,21,29.92,29.92,5,1,8,0.00
2013-5-26,87.1,70.3,52.3,57.2,53.0,48.9,95,61,31,29.92,29.92,6,1,9,0.00
2013-5-27,87.1,74.3,60.6,63.8,59.8,56.1,87,64,44,29.92,29.92,11,2,18,0.00
2013-5-28,87.1,77.0,67.3,66.2,61.7,54.4,80,62,43,29.92,29.92,11,4,15,0.00
2013-5-29,87.6,78.8,69.3,68.3,64.0,59.3,75,62,46,29.92,29.92,11,4,16,0.00
2013-5-30,84.7,77.9,69.8,71.9,67.8,64.2,84,72,57,29.92,29.92,11,4,17,0.00
2013-5-31,84.6,78.0,71.6,71.1,68.7,66.8,86,74,61,29.92,29.92,11,5,18,0.00
2013-6-1,85.5,75.7,69.3,75.4,69.7,66.2,99,83,66,29.92,29.92,13,4,24,0.22
2013-6-2,83.8,74.3,68.5,71.2,69.2,66.2,99,86,60,29.92,29.92,8,1,13,0.14
2013-6-3,83.7,72.9,64.8,68.9,63.4,58.6,98,75,47,29.92,29.92,8,2,10,0.00
2013-6-4,88.3,74.8,61.5,65.8,61.2,58.6,94,67,41,29.92,29.92,4,1,8,0.19
2013-6-5,79.3,71.3,65.7,72.5,67.9,62.0,99,89,69,29.92,29.92,8,1,13,0.34
2013-6-6,86.4,74.5,65.5,72.4,68.9,65.2,99,85,56,29.92,29.92,6,2,11,0.01
2013-6-7,70.7,68.6,65.1,69.6,67.9,64.8,99,98,94,29.92,29.92,4,1,8,0.00
2013-6-8,84.2,73.2,61.3,71.0,63.0,57.8,99,75,45,29.92,29.92,7,1,10,0.00
2013-6-9,86.5,74.4,68.4,77.2,69.8,64.0,98,87,53,29.92,29.92,14,2,23,0.52
2013-6-10,88.2,77.3,67.1,71.5,67.8,62.0,99,76,45,29.92,29.92,10,3,17,0.37
2013-6-11,93.7,82.1,71.2,75.7,72.5,69.5,96,75,51,29.92,29.92,7,2,11,0.00
2013-6-12,95.4,84.2,73.0,77.5,72.9,67.0,99,73,43,29.92,29.92,8,2,12,0.00
2013-6-13,91.8,81.2,71.1,78.4,73.1,65.9,97,78,58,29.92,29.92,10,3,19,0.01
2013-6-14,84.6,74.8,65.3,66.5,61.0,54.3,90,66,39,29.92,29.92,9,3,14,0.00
2013-6-15,89.2,76.8,56.1,67.5,63.2,56.3,95,66,37,29.92,29.92,8,2,12,0.00
2013-6-16,91.4,79.0,68.9,73.8,68.4,64.8,87,72,51,29.92,29.92,12,2,16,0.00
2013-6-17,90.7,75.5,68.7,76.0,70.9,65.8,99,88,49,29.92,29.92,29,2,37,1.22
2013-6-18,82.4,74.3,68.7,75.8,69.2,42.4,99,86,32,29.92,29.92,9,2,103,0.86
2013-6-19,90.3,76.7,64.6,71.4,66.9,61.5,99,76,43,29.92,29.92,8,1,11,0.00
2013-6-20,90.0,77.5,66.0,72.1,67.6,63.8,99,76,48,29.92,29.92,18,2,24,0.50
2013-6-21,88.9,76.6,64.6,72.1,66.6,62.3,99,75,48,29.92,29.92,7,1,11,0.01
2013-6-22,89.1,78.1,67.3,71.4,66.2,61.7,97,71,45,29.92,29.92,12,1,49,0.00
2013-6-23,90.7,78.5,66.0,71.5,67.9,62.6,97,73,45,29.92,29.92,7,2,11,0.00
2013-6-24,90.7,78.6,69.1,75.9,71.7,67.6,99,81,50,29.92,29.92,9,2,14,0.00
2013-6-25,91.8,80.0,73.0,75.6,73.1,69.3,99,82,53,29.92,29.92,9,2,15,0.00
2013-6-26,92.5,82.7,71.8,76.2,72.8,69.5,97,75,51,29.92,29.92,8,2,14,0.00
2013-6-27,89.8,73.7,69.4,75.1,70.5,68.1,97,91,58,29.92,29.92,12,4,18,0.32
2013-6-28,87.6,79.0,71.8,77.4,72.5,68.2,99,82,59,29.92,29.92,9,2,17,0.00
2013-6-29,88.9,79.2,68.0,75.4,65.3,57.9,99,68,41,29.92,29.92,6,2,11,0.00
2013-6-30,89.2,75.6,62.2,69.7,63.7,54.8,99,71,36,29.92,29.92,7,1,12,0.01
2013-7-1,85.5,73.6,62.6,71.3,65.8,61.7,99,79,52,29.92,29.92,6,1,10,0.01
2013-7-2,86.4,73.7,62.6,69.6,64.6,61.7,99,77,48,29.92,29.92,11,1,15,0.00
2013-7-3,84.2,73.7,66.7,72.4,68.5,63.7,96,85,59,29.92,29.92,8,2,12,0.06
2013-7-4,72.0,70.1,67.5,71.1,69.4,67.2,99,98,96,29.92,29.92,10,2,16,5.09
2013-7-5,77.4,71.9,69.3,74.0,70.9,68.3,99,97,87,29.92,29.92,12,2,17,0.64
2013-7-6,74.5,71.8,69.6,72.8,70.7,69.2,99,96,91,29.92,29.92,5,1,7,0.50
2013-7-7,88.9,77.4,70.3,75.9,72.2,69.2,99,86,56,29.92,29.92,6,1,11,0.01
2013-7-8,88.3,79.1,71.6,76.8,73.6,70.7,99,85,63,29.92,29.92,6,1,9,0.01
2013-7-9,92.7,81.4,75.0,80.2,75.1,71.3,99,83,53,29.92,29.92,6,1,9,0.33
2013-7-10,94.1,81.9,69.6,78.6,74.1,68.9,99,80,54,29.92,29.92,15,2,23,1.44
2013-7-11,89.4,77.0,69.6,78.4,72.7,69.2,99,88,64,29.92,29.92,8,1,14,0.12
2013-7-12,86.0,76.3,68.4,72.5,67.8,61.4,97,77,51,29.92,29.92,9,3,14,0.00
2013-7-13,88.5,76.7,63.5,71.7,66.7,60.7,91,73,48,29.92,29.92,9,2,12,0.00
2013-7-14,89.1,79.6,73.2,73.8,71.4,68.8,94,78,55,29.92,29.92,8,3,14,0.01
2013-7-15,89.1,80.0,73.8,73.8,71.4,67.7,96,77,53,29.92,29.92,11,3,15,0.08
2013-7-16,92.5,81.4,72.5,74.6,72.0,67.1,97,76,49,29.92,29.92,7,2,11,0.01
2013-7-17,94.8,83.2,70.9,77.6,73.6,69.4,99,76,48,29.92,29.92,7,1,10,0.00
2013-7-18,92.1,81.9,73.8,74.7,72.3,69.1,95,75,52,29.92,29.92,6,1,8,0.00
2013-7-19,93.9,82.5,70.0,75.6,71.7,67.9,99,74,48,29.92,29.92,8,1,13,0.00
2013-7-20,91.2,81.1,70.5,77.4,72.8,68.1,99,78,51,29.92,29.92,7,2,11,0.00
2013-7-21,91.2,78.2,71.6,77.9,73.1,69.9,99,86,57,29.92,29.92,8,2,12,0.13
2013-7-22,81.0,74.6,69.4,76.4,71.7,68.6,99,91,74,29.92,29.92,8,2,12,0.01
2013-7-23,81.9,75.0,69.8,78.2,72.6,69.2,99,93,76,29.92,29.92,8,2,15,0.18
2013-7-24,87.3,76.7,69.6,75.4,71.9,69.2,99,87,62,29.92,29.92,5,1,8,0.00
2013-7-25,86.2,76.2,66.7,69.6,65.5,62.4,91,72,50,29.92,29.92,8,2,11,0.00
2013-7-26,89.6,76.8,63.3,70.1,65.8,61.9,99,73,45,29.92,29.92,5,1,8,0.00
2013-7-27,87.4,78.2,70.0,73.7,69.2,64.8,94,76,50,29.92,29.92,8,2,12,0.00
2013-7-28,83.8,77.2,68.7,70.4,66.4,62.0,84,71,55,29.92,29.92,7,2,11,0.00
2013-7-29,82.8,72.0,64.2,64.1,60.7,51.8,90,71,39,29.92,29.92,6,1,9,0.00
2013-7-30,91.2,76.0,62.4,74.7,66.9,59.9,98,77,49,29.92,29.92,8,2,13,0.31
2013-7-31,86.2,75.1,69.4,77.7,72.5,68.2,98,92,74,29.92,29.92,8,2,17,0.79
2013-8-1,88.2,77.9,70.5,76.2,70.3,66.2,99,80,51,29.92,29.92,8,2,13,0.01
2013-8-2,90.7,77.1,64.8,71.9,67.1,63.2,99,75,44,29.92,29.92,5,1,8,0.00
2013-8-3,82.4,74.9,67.6,75.9,71.7,67.0,99,90,77,29.92,29.92,5,0,9,0.04
2013-8-4,88.0,77.8,70.5,76.7,71.0,63.9,99,82,58,29.92,29.92,7,2,13,0.00
2013-8-5,86.9,76.0,67.8,70.8,66.0,61.4,89,73,47,29.92,29.92,4,1,7,0.00
2013-8-6,83.8,76.0,70.3,78.5,73.6,68.9,99,93,78,29.92,29.92,8,1,11,0.60
2013-8-7,90.0,76.8,72.3,78.8,73.9,71.0,99,92,66,29.92,29.92,10,2,19,0.26
2013-8-8,92.1,76.7,70.7,79.7,73.2,69.8,99,90,65,29.92,29.92,11,2,17,0.47
2013-8-9,90.3,79.2,71.8,79.7,74.8,70.9,99,87,64,29.92,29.92,8,1,13,0.02
2013-8-10,86.0,76.3,71.6,78.7,74.3,70.7,99,94,75,29.92,29.92,6,1,9,0.05
2013-8-11,91.4,78.8,69.8,78.6,73.9,69.2,99,87,61,29.92,29.92,7,1,11,0.05
2013-8-12,91.4,78.9,71.2,78.0,74.0,70.6,99,87,56,29.92,29.92,11,1,17,0.26
2013-8-13,86.5,78.1,72.3,75.3,72.8,70.3,99,85,66,29.92,29.92,8,2,11,0.00
2013-8-14,82.4,73.1,65.3,70.6,65.2,59.0,97,78,53,29.92,29.92,10,3,14,0.00
2013-8-15,81.1,70.1,59.5,69.8,63.9,57.8,95,82,66,29.92,29.92,7,2,11,0.00
2013-8-16,74.3,69.6,64.2,65.7,63.8,61.8,94,82,75,29.92,29.92,6,1,9,0.00
2013-8-17,70.9,68.4,66.4,67.8,65.1,63.8,98,89,84,29.92,29.92,5,2,8,0.00
2013-8-18,78.4,71.6,65.7,70.9,68.0,65.4,99,89,70,29.92,29.92,8,1,11,0.13
2013-8-19,84.4,74.3,66.4,74.8,70.7,66.1,99,89,68,29.92,29.92,6,1,8,0.05
2013-8-20,88.2,77.0,69.1,76.7,72.8,68.8,99,88,63,29.92,29.92,11,2,16,0.01
2013-8-21,86.2,77.0,71.2,77.3,73.1,69.5,99,89,72,29.92,29.92,6,1,10,0.00
2013-8-22,90.7,77.2,68.7,77.3,72.2,68.4,99,86,59,29.92,29.92,4,1,8,0.00
2013-8-23,90.5,79.1,68.7,77.0,71.6,66.0,99,81,48,29.92,29.92,7,1,9,0.00
2013-8-24,91.4,79.8,69.4,73.5,71.5,68.1,99,78,49,29.92,29.92,5,1,9,0.00
2013-8-25,88.0,77.0,67.3,72.4,66.9,63.6,94,74,48,29.92,29.92,10,2,15,0.00
2013-8-26,86.7,74.1,62.1,68.1,63.3,58.0,99,74,45,29.92,29.92,6,1,9,0.00
2013-8-27,88.9,74.6,62.4,70.7,65.5,61.7,99,77,47,29.92,29.92,4,0,8,0.00
2013-8-28,91.2,77.7,65.5,73.6,69.4,65.2,99,79,52,29.92,29.92,5,1,8,0.00
2013-8-29,94.5,80.7,67.8,76.2,71.1,67.3,99,76,48,29.92,29.92,6,1,9,0.00
2013-8-30,95.7,82.3,71.4,77.2,73.7,70.7,99,78,48,29.92,29.92,8,1,9,0.00
2013-8-31,95.9,82.6,72.7,78.1,73.2,68.6,99,77,45,29.92,29.92,7,1,11,0.00
2013-9-1,92.5,80.7,74.1,77.1,71.4,17.8,99,76,47,29.92,29.92,9,1,14,0.00
2013-9-2,76.5,74.8,73.4,74.9,72.3,68.9,97,92,86,29.92,29.92,9,1,15,0.92
2013-9-3,88.3,79.0,72.5,75.3,69.1,61.0,99,75,43,29.92,29.92,6,1,9,0.00
2013-9-4,88.0,75.8,65.7,69.5,65.2,61.5,98,73,46,29.92,29.92,8,1,11,0.00
2013-9-5,88.7,75.5,63.1,68.7,64.4,60.9,97,72,46,29.92,29.92,6,1,8,0.00
2013-9-6,91.9,77.1,64.8,69.1,65.3,60.8,98,72,39,29.92,29.92,4,1,6,0.00
2013-9-7,86.7,71.3,64.6,73.9,67.8,64.3,99,90,63,29.92,29.92,6,1,8,0.00
2013-9-8,93.4,84.0,72.5,73.8,71.0,67.7,93,68,47,29.92,29.92,8,1,9,0.00
2013-9-9,91.2,79.2,70.3,75.7,72.2,68.9,99,81,54,29.92,29.92,6,1,9,0.04
2013-9-10,92.5,80.7,72.1,74.6,71.5,65.3,97,76,49,29.92,29.92,8,1,11,0.00
2013-9-11,92.1,79.4,69.6,75.4,68.8,64.8,99,74,45,29.92,29.92,7,1,9,0.00
2013-9-12,93.0,78.0,68.4,73.9,69.2,66.1,99,79,46,29.92,29.92,11,1,15,0.13
2013-9-13,82.6,72.3,61.3,70.8,61.9,52.1,99,74,41,29.92,29.92,10,2,14,0.00
2013-9-14,80.2,65.9,53.1,58.8,55.1,50.8,93,71,44,29.92,29.92,7,2,11,0.00
2013-9-15,85.6,69.3,55.0,67.5,60.1,54.2,99,77,46,29.92,29.92,8,1,11,0.00
2013-9-16,88.0,72.8,57.7,70.1,60.1,53.7,99,71,35,29.92,29.92,6,1,10,0.00
2013-9-17,88.7,75.7,64.0,69.5,65.7,62.3,96,74,47,29.92,29.92,8,2,13,0.00
2013-9-18,83.1,73.7,67.3,69.3,65.6,62.2,87,77,62,29.92,29.92,8,3,12,0.00
2013-9-19,87.8,75.7,65.5,67.9,66.2,64.3,97,75,49,29.92,29.92,6,2,9,0.00
2013-9-20,88.7,75.9,64.8,70.7,66.5,63.7,99,76,49,29.92,29.92,9,2,12,0.08
2013-9-21,74.7,68.2,59.5,70.8,64.4,54.5,99,89,63,29.92,29.92,8,3,14,2.41
2013-9-22,78.4,65.2,52.7,58.6,54.5,51.5,99,73,43,29.92,29.92,8,2,14,0.00
2013-9-23,84.0,68.5,53.6,62.7,58.5,52.8,99,74,47,29.92,29.92,9,1,11,0.00
2013-9-24,77.0,68.3,61.0,69.7,65.6,59.1,98,91,76,29.92,29.92,7,2,11,0.01
2013-9-25,81.1,70.3,66.4,71.3,67.5,65.7,99,92,64,29.92,29.92,5,1,7,0.04
2013-9-26,83.8,72.3,65.1,68.8,65.2,61.0,99,81,51,29.92,29.92,6,1,8,0.00
2013-9-27,83.8,69.6,57.6,67.3,61.3,56.8,99,78,45,29.92,29.92,7,1,11,0.00
2013-9-28,80.6,67.5,58.5,62.3,58.2,53.9,99,76,43,29.92,29.92,8,2,12,0.00
2013-9-29,77.5,66.0,56.7,61.3,58.6,56.1,99,79,54,29.92,29.92,7,1,12,0.00
2013-9-30,73.8,66.9,62.1,64.1,61.3,58.5,98,83,68,29.92,29.92,5,1,8,0.02
2013-10-1,85.3,69.5,58.6,69.2,64.4,58.4,99,86,57,29.92,29.92,6,1,9,0.01
2013-10-2,85.8,73.1,62.2,69.6,65.7,61.7,99,81,50,29.92,29.92,5,1,8,0.00
2013-10-3,86.2,74.7,64.0,70.6,66.0,60.4,99,78,47,29.92,29.92,7,1,11,0.00
2013-10-4,81.7,68.5,64.8,69.9,66.3,64.2,99,93,68,29.92,29.92,4,0,7,0.00
2013-10-7,54.7,54.2,53.6,49.2,48.8,48.4,83,82,82,29.92,29.92,4,3,8,0.02
2013-10-8,79.5,63.3,50.5,58.3,52.9,47.1,89,72,45,29.92,29.92,8,2,11,0.00
2013-10-9,78.4,68.2,60.6,59.7,56.0,50.2,93,68,46,29.92,29.92,8,2,12,0.00
2013-10-10,83.7,67.3,56.5,65.0,59.6,55.4,99,80,44,29.92,29.92,6,0,8,0.00
2013-10-11,83.8,66.7,54.0,66.3,57.8,53.1,99,77,43,29.92,29.92,4,0,6,0.00
2013-10-12,83.1,66.9,52.3,63.8,58.5,51.6,99,79,47,29.92,29.92,6,1,11,0.00
2013-10-13,82.6,69.5,56.7,65.8,59.1,56.3,99,74,46,29.92,29.92,7,1,11,0.00
2013-10-14,83.1,70.0,60.4,64.8,61.5,58.5,99,77,47,29.92,29.92,4,1,8,0.00
2013-10-15,76.8,67.9,62.8,64.1,61.3,59.3,95,81,59,29.92,29.92,8,2,12,0.00
2013-10-16,67.6,65.0,63.0,66.4,63.6,60.6,99,95,90,29.92,29.92,8,2,13,0.70
2013-10-17,65.5,60.2,48.2,65.0,58.9,47.9,99,95,85,29.92,29.92,6,1,10,0.17
2013-10-18,68.0,54.1,45.1,61.7,49.5,44.3,99,87,55,29.92,29.92,4,0,8,0.01
2013-10-19,70.7,56.2,44.8,57.8,51.5,43.1,99,86,59,29.92,29.92,10,1,15,0.00
2013-10-20,69.3,51.3,38.3,48.1,40.0,29.8,99,73,28,29.92,29.92,5,1,49,0.00
2013-10-21,72.5,55.3,37.4,52.5,43.7,36.9,99,72,31,29.92,29.92,7,1,10,0.00
2013-10-22,67.8,56.0,48.9,56.4,52.1,48.7,99,88,65,29.92,29.92,7,1,8,0.00
2013-10-23,58.8,48.7,38.3,48.9,40.3,33.1,99,77,44,29.92,29.92,8,2,14,0.00
2013-10-24,62.6,48.5,37.4,44.1,41.1,-21.7,97,78,50,29.92,29.92,9,2,24,0.00
2013-10-25,54.9,41.2,29.8,35.4,27.1,19.8,82,61,30,29.92,29.92,8,2,12,0.00
2013-10-26,62.8,46.4,28.0,43.9,32.1,23.8,98,64,27,29.92,29.92,8,1,12,0.00
2013-10-27,70.3,59.6,50.4,54.8,49.8,42.8,87,71,54,29.92,29.92,6,1,11,0.00
2013-10-28,64.0,57.6,54.7,58.7,55.0,52.7,99,91,83,29.92,29.92,2,0,4,0.01
2013-10-29,77.2,63.5,53.2,63.4,58.3,52.7,99,85,63,29.92,29.92,6,1,10,0.00
2013-10-30,79.9,67.8,56.8,64.4,57.4,52.3,99,73,42,29.92,29.92,11,2,15,0.00
2013-10-31,73.6,67.7,63.1,68.1,61.8,55.9,99,82,70,29.92,29.92,21,5,26,0.28
2013-11-1,71.8,60.9,47.5,64.3,52.2,40.9,99,78,36,29.92,29.92,8,1,15,0.01
2013-11-2,49.3,45.8,43.5,46.4,43.5,40.1,99,92,73,29.92,29.92,2,0,3,0.00
2013-11-3,62.6,48.5,39.2,42.3,36.1,25.6,93,68,28,29.92,29.92,8,1,11,0.00
2013-11-4,67.5,54.6,39.2,43.3,38.2,34.3,89,59,35,29.92,29.92,11,3,18,0.00
2013-11-5,64.2,56.3,50.9,45.5,39.4,35.3,74,55,44,29.92,29.92,10,3,17,0.00
2013-11-6,76.8,64.0,50.5,62.2,56.0,40.7,98,77,57,29.92,29.92,11,3,17,1.13
2013-11-7,61.2,48.3,37.0,60.6,39.4,27.3,99,75,36,29.92,29.92,11,3,17,0.28
2013-11-8,60.8,44.3,29.7,38.9,29.8,20.3,98,63,25,29.92,29.92,7,1,11,0.00
2013-11-9,61.7,48.7,35.8,45.5,38.4,31.2,89,70,39,29.92,29.92,5,0,7,0.00
2013-11-10,69.6,55.5,42.6,50.9,40.9,29.1,99,63,34,29.92,29.92,7,2,11,0.00
2013-11-11,70.7,53.3,34.5,41.0,26.6,14.0,86,46,15,29.92,29.92,4,1,8,0.00
2013-11-12,51.1,40.3,-27.0,42.8,26.1,10.8,76,57,37,29.92,29.92,24,2,100,0.00
2013-11-13,49.1,34.5,25.5,19.9,14.8,6.7,71,49,23,29.92,29.92,14,2,110,0.00
2013-11-14,60.1,41.0,22.5,28.7,18.9,12.0,85,48,21,29.92,29.92,7,1,11,0.00
2013-11-15,56.1,50.6,44.6,51.3,42.2,22.7,99,76,44,29.92,29.92,6,2,11,0.34
2013-11-16,65.3,59.3,50.7,60.6,56.5,50.4,99,91,83,29.92,29.92,10,3,16,0.01
2013-11-17,69.4,65.0,59.9,69.1,63.7,56.9,99,96,80,29.92,29.92,9,4,15,0.98
2013-11-18,66.6,57.3,46.6,58.6,41.1,30.3,98,59,31,29.92,29.92,9,1,14,0.01
2013-11-19,54.7,45.3,38.3,31.1,28.0,21.0,70,53,31,29.92,29.92,10,1,17,0.00
2013-11-20,62.6,50.4,36.0,39.7,32.1,26.8,76,53,31,29.92,29.92,10,1,17,0.00
2013-11-21,62.6,56.8,50.2,54.6,47.7,39.6,89,72,61,29.92,29.92,9,1,15,0.01
2013-11-22,61.2,56.6,48.0,60.3,55.2,47.6,99,95,88,29.92,29.92,8,2,16,0.17
2013-11-23,50.2,42.6,28.2,47.6,35.7,16.8,99,78,49,29.92,29.92,15,2,24,0.00
2013-11-24,40.6,29.6,22.1,16.8,10.7,-1.1,68,48,23,29.92,29.92,8,1,17,0.00
2013-11-25,37.6,30.6,26.2,37.3,19.1,8.3,99,66,45,29.92,29.92,4,0,6,0.83
2013-11-26,44.8,39.1,34.5,44.0,38.5,29.9,99,98,83,29.92,29.92,12,3,21,1.80
2013-11-27,35.8,30.6,21.6,29.9,17.5,8.4,83,59,42,29.92,29.92,9,0,21,0.00
2013-11-28,21.4,21.2,20.8,9.1,8.6,8.4,60,58,57,29.92,29.92,0,0,0,0.00
2013-12-2,53.2,53.0,52.5,52.7,52.4,52.0,98,98,98,29.92,29.92,2,0,4,0.06
2013-12-3,60.4,54.8,49.8,58.9,54.2,49.6,99,98,93,29.92,29.92,6,0,9,0.00
2013-12-4,73.8,66.1,58.8,65.6,62.5,58.5,99,89,69,29.92,29.92,58,2,58,0.00
2013-12-5,67.5,62.5,41.7,66.6,61.9,41.5,99,98,97,29.92,29.92,7,2,11,0.02
2013-12-6,41.9,37.9,33.6,41.6,37.4,32.3,99,98,95,29.92,29.92,8,1,14,1.20
2013-12-7,34.2,31.8,30.2,32.9,30.7,28.9,99,96,92,29.92,29.92,9,0,15,0.01
2013-12-8,47.8,47.4,47.1,47.6,47.2,46.9,99,99,99,29.92,29.92,1,0,2,1.23
2013-12-9,47.8,39.4,33.4,47.6,38.9,33.0,99,98,95,29.92,29.92,5,1,12,0.33
2013-12-10,42.3,32.8,25.2,33.2,28.3,21.3,99,85,63,29.92,29.92,8,0,11,0.18
2013-12-11,52.5,35.6,20.7,34.7,23.0,12.2,97,66,25,29.92,29.92,2,0,14,0.00
2013-12-12,42.4,29.6,19.6,24.6,13.2,-0.3,81,55,23,29.92,29.92,4,0,14,0.00
2013-12-13,48.6,36.4,20.1,27.7,21.0,11.3,77,56,34,29.92,29.92,4,0,8,0.00
2013-12-14,52.2,45.9,36.3,51.6,43.1,26.5,99,91,50,29.92,29.92,10,2,15,0.65
2013-12-15,37.0,33.6,29.1,33.5,29.4,25.1,92,84,77,29.92,29.92,4,0,12,0.00
2013-12-16,58.1,40.2,25.3,36.4,29.1,22.9,96,69,32,29.92,29.92,5,0,12,0.00
2013-12-17,61.7,46.1,31.6,37.6,32.6,25.4,85,62,41,29.92,29.92,7,1,12,0.00
2013-12-18,54.9,40.7,25.7,31.7,20.4,3.6,82,50,20,29.92,29.92,5,0,8,0.00
2013-12-19,62.6,50.4,34.9,35.4,28.7,20.8,65,46,28,29.92,29.92,8,1,14,0.00
2013-12-20,65.8,59.8,52.2,59.5,50.5,29.3,87,73,41,29.92,29.92,12,2,17,0.00
2013-12-21,72.5,67.8,63.1,68.4,64.5,59.2,98,90,83,29.92,29.92,14,3,22,0.22
2013-12-22,66.4,56.6,53.8,61.7,55.3,52.7,99,95,85,29.92,29.92,14,0,20,0.98
2013-12-23,54.0,38.1,32.9,53.1,33.6,25.7,99,84,68,29.92,29.92,8,0,16,0.01
2013-12-24,36.7,33.8,33.8,26.4,26.4,26.4,74,74,74,29.92,29.92,0,0,1,0.01